GFSNE_prec_cthk_183.txt.gz
RH
18 20 20 20 18 19 21 19 20 20 23 23 21 17 15 17 24 26 27 29 32 39 45 52 54 54 54 57 58 55 51 46 42 39 35 32 32 31
20 21 21 19 19 21 22 20 19 19 19 18 14 13 11 11 15 19 21 23 22 24 29 32 37 43 44 45 47 51 53 51 44 42 39 37 35 34
21 20 21 19 21 23 23 21 18 17 15 14 13 12 12 12 12 15 17 20 20 17 19 18 22 25 28 33 37 40 45 50 49 46 44 41 38 36
22 22 23 23 23 25 24 21 18 16 15 14 14 14 14 13 13 12 13 15 20 15 13 14 18 18 16 17 22 28 33 39 46 50 47 43 43 41
22 24 25 26 27 27 25 23 18 16 17 16 16 16 15 15 14 13 13 13 18 13 10 11 13 17 16 15 15 18 21 24 28 35 47 50 46 43
25 27 28 28 30 29 29 24 19 18 18 18 18 18 17 16 16 15 14 13 14 12 11 11 12 16 15 15 13 13 16 20 23 27 28 36 46 48
29 31 32 31 31 33 33 28 20 19 20 20 20 19 18 18 17 17 16 15 15 14 12 11 11 15 16 14 11 11 13 16 20 25 28 28 33 43
33 33 34 34 36 37 36 31 23 21 21 22 21 20 20 20 19 18 18 17 16 15 13 11 11 13 16 14 9 9 9 11 17 22 28 30 30 33
35 36 36 39 43 44 40 34 25 22 22 24 23 23 23 22 21 19 19 17 16 14 12 11 11 12 17 14 11 10 10 9 11 17 22 28 31 32
38 39 40 46 46 45 43 35 27 24 25 26 27 27 26 25 23 22 21 17 13 14 12 11 11 12 20 14 13 11 11 10 11 13 18 24 30 33
41 40 44 49 49 47 43 34 30 27 27 30 32 31 29 27 24 22 19 15 13 14 12 11 13 10 12 15 15 14 13 12 12 14 16 22 31 35
44 46 50 51 52 50 42 36 34 31 30 31 33 33 31 27 25 23 21 18 15 13 13 12 14 12 10 12 13 16 15 15 14 14 16 20 26 35
50 53 55 53 54 50 42 39 36 33 32 32 35 35 31 27 24 22 21 20 17 16 15 13 17 18 17 15 13 15 19 20 18 17 18 19 23 31
55 56 55 54 55 51 44 41 41 36 32 34 38 36 31 26 23 22 22 21 19 18 15 13 16 19 19 18 19 16 19 23 23 21 24 28 27 30
60 58 55 54 54 52 46 46 45 38 34 39 42 36 31 26 24 23 24 21 20 18 16 16 17 18 21 21 22 21 20 22 24 26 29 36 37 34
60 57 54 54 56 52 50 51 47 40 41 46 42 35 30 28 25 21 20 21 20 18 18 18 19 20 22 23 23 20 22 25 26 30 32 37 42 45
58 57 55 54 54 52 54 55 50 44 49 48 40 34 29 28 24 21 20 20 18 18 18 19 21 23 24 24 24 22 20 21 23 27 29 31 36 41
59 56 54 54 53 55 58 58 52 50 54 47 39 32 29 27 24 23 21 20 19 19 20 21 23 23 23 24 25 25 22 19 19 22 26 28 28 33
58 57 55 54 56 58 63 59 56 59 55 45 38 32 29 29 27 25 24 23 22 22 23 23 25 27 27 28 24 24 26 21 19 20 24 26 27 28
59 57 56 57 59 64 66 64 63 61 52 44 38 33 31 30 30 30 29 28 26 26 26 26 26 28 31 33 29 26 26 23 22 25 24 23 23 23
63 57 57 61 64 68 69 65 65 59 50 44 39 36 34 33 35 35 35 33 31 31 31 31 30 30 30 30 28 26 25 24 23 27 26 25 23 20
69 58 60 63 65 70 69 67 65 57 50 44 40 40 38 38 40 40 39 38 38 38 37 36 34 32 31 30 30 29 26 24 23 23 23 29 28 27
67 60 63 66 70 71 69 67 63 54 49 45 43 42 42 43 45 45 45 45 45 43 41 39 37 34 32 31 30 29 27 25 24 22 22 22 22 23

GFSNE_prec_cthk_186.txt.gz
RH
23 19 18 16 16 19 20 19 19 19 19 18 14 13 12 12 14 17 16 17 20 19 19 22 29 38 47 52 54 57 59 59 57 52 49 45 40 37
23 20 18 17 18 21 22 21 21 20 17 16 13 12 12 11 12 13 14 17 20 18 14 14 15 17 26 35 41 46 47 50 52 52 50 47 44 41
24 22 19 18 21 22 24 23 22 21 17 15 13 12 13 13 13 12 12 14 17 16 12 11 12 12 13 18 25 30 34 36 41 42 47 48 46 44
26 22 19 21 23 25 25 24 24 22 18 16 14 14 14 14 14 13 13 14 17 14 11 11 10 11 11 13 14 18 21 25 28 32 34 40 45 45
26 21 21 24 26 26 26 27 26 24 19 17 15 15 16 16 15 15 15 15 16 15 12 12 11 11 12 13 11 10 11 13 19 25 26 28 35 41
27 26 26 27 28 29 29 30 28 26 23 20 16 16 17 16 17 17 17 17 16 16 14 12 11 11 12 12 9 8 10 11 11 15 18 20 24 30
29 28 28 30 31 32 33 35 33 32 28 23 18 17 18 18 19 19 18 18 18 16 13 11 11 10 12 11 10 9 8 8 11 12 15 17 18 21
35 30 31 32 33 35 36 36 37 36 32 28 20 18 19 20 20 20 20 19 17 14 12 11 10 10 12 11 10 10 9 9 9 9 10 15 18 20
34 31 33 35 36 38 39 39 41 39 34 30 22 21 22 23 23 22 21 19 16 14 13 11 10 10 13 10 10 10 10 10 10 11 9 10 16 19
33 34 36 36 38 41 41 44 45 41 37 29 24 24 25 26 27 25 23 20 16 15 14 12 11 10 12 11 9 9 9 10 11 11 13 11 13 18
36 37 38 37 39 41 44 47 46 43 39 33 29 27 26 31 32 28 24 19 16 16 15 14 13 10 10 11 9 9 9 10 11 12 12 14 13 14
39 41 40 39 40 44 50 50 47 43 40 37 32 28 27 32 31 28 23 20 19 17 16 15 14 12 10 10 10 9 9 10 11 12 14 15 17 16
44 44 42 41 45 48 51 52 49 44 42 39 33 29 29 32 30 26 24 22 21 19 17 15 14 14 14 13 11 10 10 10 10 11 14 18 21 20
48 46 43 43 48 50 52 52 49 47 46 41 35 32 32 32 32 27 24 24 22 20 18 15 15 16 16 15 14 12 11 11 10 11 14 18 20 21
50 48 47 47 50 51 53 54 50 50 50 44 36 36 37 36 32 27 25 23 22 20 18 16 16 17 17 18 17 15 12 13 13 12 14 19 21 22
53 52 52 50 49 52 55 55 52 55 55 46 41 43 42 37 31 26 23 20 19 18 17 17 17 17 18 19 19 17 16 16 15 14 14 16 20 22
54 54 53 49 51 54 55 54 54 59 57 48 48 46 43 38 32 28 24 21 20 18 18 18 18 18 20 20 20 19 19 19 17 15 14 14 16 19
55 55 52 51 51 55 56 55 57 62 59 52 54 50 44 38 33 30 26 24 22 21 21 20 20 20 20 21 22 20 22 21 20 17 17 15 13 16
54 53 53 53 54 57 58 58 61 66 60 59 58 50 44 38 36 32 29 27 26 25 25 24 24 25 25 25 24 24 24 23 21 20 20 18 16 14
53 54 56 57 56 57 59 60 64 68 61 62 58 51 44 40 37 35 33 32 31 30 30 30 30 30 30 32 29 27 26 24 23 24 25 20 17 15
56 56 56 55 55 58 60 61 67 69 65 64 58 51 45 42 40 39 37 37 36 36 36 36 36 35 33 32 31 28 25 22 21 26 27 27 24 20
56 55 56 55 56 58 60 63 72 70 67 65 59 52 47 45 44 43 41 41 42 42 42 42 40 37 35 35 33 29 24 22 20 20 21 24 29 30
61 59 58 56 57 59 62 68 73 70 69 66 59 54 49 47 47 46 45 46 48 47 46 44 42 40 39 38 33 28 25 23 23 22 22 22 23 23

GFSNE_prec_cthk_189.txt.gz
RH
30 28 27 25 21 20 18 18 18 20 23 20 17 15 13 12 11 12 12 12 12 15 13 10 10 10 12 20 33 41 48 53 55 58 58 54 50 48
33 32 31 28 23 22 20 19 19 21 24 19 18 15 12 13 12 12 12 12 12 13 11 10 10 10 10 11 15 27 34 37 41 46 49 52 53 50
37 35 31 28 24 24 23 20 20 23 23 20 19 16 13 13 12 12 12 13 14 14 13 12 11 11 11 12 12 13 18 24 31 35 36 40 45 48
42 39 35 30 27 25 26 22 23 24 23 21 20 18 15 14 13 13 13 15 15 15 14 13 12 11 10 11 11 11 12 12 14 22 28 30 33 39
43 41 37 32 30 28 25 26 26 26 25 24 22 20 18 16 13 14 15 16 16 16 15 14 11 10 11 11 11 10 11 11 12 10 16 23 25 28
48 44 40 36 33 31 30 28 28 28 28 27 26 24 21 18 15 15 17 17 16 16 15 13 11 10 11 11 14 17 16 14 13 13 11 12 19 23
50 49 44 40 37 35 32 30 30 30 30 29 27 27 25 21 18 16 17 18 18 17 16 12 11 10 10 10 10 11 13 14 17 19 14 10 12 15
53 46 46 40 35 32 32 32 32 32 33 30 29 29 28 24 19 17 19 21 23 19 15 13 11 11 11 11 9 8 8 8 11 15 15 11 12 15
53 50 42 34 31 34 35 34 34 34 34 34 34 33 30 24 20 20 22 24 22 19 16 14 13 11 12 12 10 9 8 7 7 9 11 12 10 13
53 42 39 34 33 36 36 36 36 35 38 38 38 36 33 26 22 22 25 27 26 22 18 15 13 11 11 12 10 9 8 8 7 7 8 10 9 10
48 42 37 36 36 37 38 37 38 40 41 41 40 39 36 29 24 24 25 27 26 23 19 15 14 11 12 12 10 9 8 8 7 7 7 9 9 9
47 42 37 39 38 40 40 39 41 44 45 44 44 41 36 30 26 26 26 27 26 29 19 16 15 14 15 12 11 10 9 8 8 7 7 7 7 10
44 39 38 40 41 42 43 42 43 46 47 46 46 43 37 31 29 27 26 24 24 23 20 18 18 17 21 21 19 11 10 10 8 8 7 8 8 8
39 40 42 41 42 43 44 44 45 47 49 48 48 45 38 33 31 29 28 26 25 23 21 18 18 16 19 22 21 20 11 13 10 10 11 11 14 11
44 43 44 42 41 44 46 46 45 48 50 49 51 49 42 37 36 33 31 28 25 23 21 18 17 16 20 23 23 22 20 16 12 13 15 18 20 18
48 48 47 44 44 46 48 48 47 48 50 52 54 51 45 43 39 35 32 29 26 23 21 19 18 18 19 25 25 25 24 24 22 21 20 22 22 21
49 48 49 48 47 48 49 49 49 50 51 54 56 53 50 47 44 40 35 30 27 24 23 22 21 20 20 19 28 28 27 26 24 22 24 24 23 23
49 49 50 48 48 47 49 51 52 51 52 57 60 56 54 52 47 41 36 33 32 29 28 25 24 24 27 28 24 28 29 29 28 28 27 26 24 24
51 51 50 48 47 48 50 51 53 53 55 60 62 58 58 53 46 42 38 35 34 32 31 29 30 31 34 35 34 29 27 27 29 31 29 28 26 25
51 52 51 50 48 50 51 52 53 53 56 60 63 59 59 53 49 45 41 37 37 36 35 34 35 33 37 39 39 34 29 26 27 32 30 27 25 21
49 48 50 50 49 47 49 51 51 53 56 61 63 61 60 55 52 48 45 41 39 39 40 39 36 34 37 40 41 39 32 27 24 21 23 26 26 25
51 51 52 52 48 47 50 52 52 53 57 64 64 63 61 56 56 53 50 51 47 42 42 42 40 39 41 42 41 41 36 27 22 21 21 21 27 28
57 58 56 52 48 50 55 56 56 56 61 68 65 66 63 59 56 59 56 52 47 46 44 47 46 45 46 45 41 41 33 27 26 26 28 26 26 26

GFSNE_prec_cthk_195.txt.gz
RH
62 65 63 55 51 43 38 33 32 35 35 36 30 23 24 21 17 18 20 12 10 9 9 9 10 11 11 11 11 11 12 14 15 15 21 30 44 60
68 68 61 54 48 40 35 33 33 35 37 36 28 27 22 23 19 18 16 13 11 11 10 10 11 11 12 11 11 11 11 11 13 13 12 17 27 43
82 63 57 54 47 41 37 36 34 35 38 35 32 27 24 25 23 21 21 21 14 12 12 11 12 12 12 11 10 10 10 10 11 13 11 11 15 27
64 60 56 54 53 48 45 43 39 36 39 37 33 29 29 24 23 24 23 20 19 14 14 12 14 13 12 11 10 10 10 10 9 10 10 9 9 11
61 57 56 56 55 53 50 46 39 34 36 38 34 32 30 25 27 24 22 24 20 18 16 16 17 18 15 13 11 11 11 11 11 10 8 7 8 9
61 63 58 55 54 49 48 45 39 36 40 36 35 34 31 26 27 25 29 25 26 22 24 24 25 26 24 17 13 12 11 12 13 14 12 8 7 9
67 61 58 57 57 50 49 45 40 41 41 38 37 34 32 30 29 25 28 28 29 26 21 28 27 28 26 24 14 14 12 11 10 11 13 10 8 9
70 64 58 61 60 55 51 46 43 44 42 40 37 35 29 25 26 31 24 30 36 31 22 32 24 27 27 24 17 17 17 13 11 10 10 10 8 12
71 67 67 69 64 60 53 49 45 41 36 34 32 30 28 27 27 31 28 27 28 25 22 33 28 27 23 29 24 23 23 19 15 11 10 10 9 11
69 68 72 68 66 60 58 51 50 40 36 35 33 30 29 30 30 31 31 33 33 29 23 32 29 28 22 26 30 26 23 16 12 11 12 12 11 12
72 76 77 69 66 63 58 57 48 43 38 35 31 29 30 32 32 33 39 41 38 37 25 22 31 29 26 28 27 27 23 21 16 17 21 22 20 19
77 89 76 69 68 64 62 55 50 43 36 33 30 30 32 34 36 36 37 41 38 39 33 23 31 29 31 32 30 29 28 26 25 24 24 23 22 20
96 85 78 72 69 69 66 58 49 40 35 33 30 32 33 36 39 39 35 32 36 40 28 26 34 34 33 32 32 31 30 28 27 25 25 24 23 22
96 85 81 71 72 69 66 56 42 37 36 34 34 36 39 40 41 40 35 33 31 31 30 29 31 34 33 35 35 33 32 29 28 27 24 22 24 23
96 88 76 76 70 68 59 47 39 37 36 36 42 45 42 41 43 40 39 36 34 33 32 31 30 29 32 36 34 32 31 29 29 28 25 22 24 24
92 78 79 75 71 62 51 45 38 38 38 41 46 45 39 40 44 45 46 41 45 47 38 35 32 29 32 35 33 32 32 30 29 28 23 25 25 25
84 82 79 77 67 55 49 40 38 41 42 47 46 43 43 49 51 47 50 49 49 47 46 44 39 34 34 30 32 34 32 30 29 26 25 27 26 26
88 84 83 72 61 57 47 40 45 47 46 49 47 45 47 47 50 52 50 48 48 46 43 41 39 37 37 40 39 36 32 32 29 26 28 27 27 25
90 90 80 67 65 58 48 46 50 49 50 51 49 47 46 46 48 50 49 47 45 43 41 40 39 39 38 41 44 36 37 34 29 29 28 28 26 22
96 85 74 69 62 53 52 52 51 51 55 53 51 48 48 48 47 50 50 51 49 46 43 42 43 43 42 43 41 39 39 36 32 29 28 27 24 22
89 77 71 64 55 55 55 54 53 56 59 54 53 50 50 51 53 54 54 55 53 51 48 49 49 44 42 44 46 49 43 40 37 33 31 29 29 28
76 72 69 63 59 58 59 58 58 60 61 58 55 54 54 55 56 59 61 63 57 58 56 53 53 52 50 49 49 47 46 46 40 35 34 36 34 33
72 72 67 63 62 62 63 62 63 63 61 58 58 58 61 62 62 65 69 69 72 69 63 60 59 58 56 56 54 52 55 51 44 39 37 42 38 35

GFSNE_prec_cthk_201.txt.gz
RH
66 72 65 66 67 62 64 65 67 76 74 66 63 52 41 37 31 27 22 20 19 18 16 13 11 9 8 8 7 8 8 8 10 11 10 16 21 21
72 75 67 66 66 67 64 67 73 79 70 66 59 50 43 38 31 25 25 24 21 18 14 12 11 9 9 9 8 9 9 9 12 11 10 13 20 21
80 77 67 64 70 67 74 77 84 81 66 61 59 51 44 35 31 29 29 26 23 18 15 12 11 10 11 9 9 10 11 10 12 12 11 10 19 21
89 76 65 64 68 79 83 88 92 76 62 58 58 52 46 37 33 32 30 27 24 19 16 13 13 12 12 10 10 10 11 11 12 13 13 11 12 22
92 80 67 69 81 92 94 96 80 69 66 61 59 54 45 39 38 34 30 28 24 21 17 15 15 14 12 11 11 11 12 12 13 13 13 12 12 16
89 74 72 83 91 96 98 88 70 71 63 61 59 51 44 43 39 34 33 30 27 23 19 18 16 15 13 12 11 13 13 13 13 14 14 14 16 17
84 80 90 95 98 97 94 70 72 63 63 62 57 50 45 44 40 38 34 32 29 26 24 21 18 17 15 13 15 13 14 13 14 15 15 16 17 22
87 95 97 98 97 95 77 75 65 63 66 62 58 52 48 44 41 38 34 33 32 28 28 23 19 17 16 15 16 14 14 14 15 16 15 13 14 17
90 92 97 96 97 85 75 77 71 70 69 60 59 54 50 47 42 38 35 31 30 27 26 20 17 17 18 16 15 15 15 16 17 17 17 17 18 18
88 90 93 91 90 85 74 82 74 72 71 66 62 57 54 50 44 39 36 35 31 29 23 19 18 18 18 16 18 19 20 21 21 20 20 19 24 23
86 93 97 96 93 80 80 77 79 71 76 71 64 62 59 52 46 42 39 35 30 23 22 19 18 17 18 22 25 25 25 24 23 23 22 21 23 26
89 91 96 97 91 81 79 74 79 74 78 73 69 66 61 55 48 43 40 33 27 25 24 21 18 18 21 29 31 28 30 28 26 23 21 20 20 26
93 96 96 97 88 86 81 77 75 84 82 74 69 68 63 58 49 42 39 33 29 26 24 22 18 18 19 27 31 33 32 30 28 22 20 19 19 22
94 98 97 96 96 88 83 77 82 90 78 76 71 71 65 58 50 44 38 32 29 28 27 25 19 19 20 23 27 32 32 30 28 23 21 18 19 21
88 89 97 97 91 88 86 87 93 84 82 73 75 71 64 59 53 45 37 30 29 29 26 24 22 21 21 22 24 28 24 26 26 23 21 19 19 20
98 91 98 95 94 87 92 97 92 87 83 82 77 72 64 60 54 46 34 31 30 30 29 27 25 24 23 24 25 26 27 29 30 26 25 23 22 22
83 85 86 88 93 95 96 97 92 89 84 81 78 72 64 61 57 44 34 31 32 32 33 33 31 28 28 29 30 31 33 37 34 31 31 29 27 26
80 80 83 83 94 96 96 96 94 94 90 83 84 68 65 63 55 43 36 33 34 35 37 39 36 34 33 34 35 37 41 42 38 37 35 35 34 32
88 87 82 82 86 89 93 92 97 97 95 88 80 68 67 63 53 45 40 38 36 39 45 45 43 41 38 42 44 48 50 49 46 46 43 41 39 39
85 78 80 89 89 94 94 93 97 97 96 88 73 72 69 59 53 47 43 43 41 42 45 45 46 47 44 44 46 50 51 52 56 54 51 49 48 44
95 96 96 95 95 95 96 97 97 97 95 76 71 67 64 59 54 49 48 49 46 43 43 45 48 52 52 54 54 54 58 60 60 62 62 59 55 49
97 97 97 97 97 97 97 97 98 97 85 74 68 66 64 58 56 54 57 56 51 46 49 51 53 58 62 64 64 67 67 64 68 67 65 61 59 56
97 97 97 97 97 97 97 97 97 90 76 71 69 66 62 59 60 63 64 60 58 57 56 56 62 68 69 69 71 74 71 72 72 71 68 61 55 54

GFSNE_prec_cthk_204.txt.gz
RH
76 75 73 72 70 69 66 70 60 65 69 71 69 72 66 53 51 45 43 36 31 30 26 23 19 16 13 10 8 7 7 7 7 6 7 10 20 22
87 83 84 80 78 73 74 75 64 62 69 72 82 83 63 61 52 45 39 36 34 31 26 23 20 16 12 10 9 8 8 7 7 7 7 10 21 22
85 87 85 84 87 82 83 81 68 65 70 80 91 75 71 58 47 46 39 35 32 28 26 24 19 15 12 11 10 9 8 8 7 8 8 9 15 22
91 92 94 95 95 94 94 88 73 71 77 88 94 77 70 57 51 43 39 38 34 31 29 23 19 16 14 12 11 10 9 8 8 8 8 9 11 20
98 97 96 97 97 96 92 85 71 78 83 96 91 77 66 60 51 49 44 42 37 34 27 22 20 18 15 13 12 10 8 8 8 8 9 10 11 13
96 98 98 97 96 95 91 83 81 87 95 98 90 75 72 61 56 51 46 44 39 35 29 25 22 20 17 14 12 10 8 8 8 8 9 11 12 13
98 98 98 96 97 96 88 81 84 90 98 97 86 74 72 64 56 52 50 46 41 37 33 30 27 23 19 15 13 10 9 9 8 9 11 12 13 14
97 98 98 96 90 87 84 87 90 97 98 89 82 75 69 66 59 55 54 51 42 37 38 34 30 24 21 18 14 10 9 9 9 10 12 13 14 15
95 92 89 88 88 83 89 89 93 99 87 82 73 77 67 63 56 56 54 48 42 41 41 39 33 26 22 20 17 12 11 11 11 12 14 14 14 15
89 85 84 84 83 90 84 86 91 83 81 74 73 73 63 61 58 56 54 50 47 46 44 40 35 25 22 21 17 14 13 14 13 14 15 16 16 16
75 75 75 76 81 90 97 94 85 83 85 77 81 82 73 69 61 59 58 54 52 50 46 43 33 24 23 19 17 15 17 19 19 17 16 16 16 16
70 76 75 77 85 87 94 96 92 84 91 82 85 82 75 72 68 64 61 54 54 53 47 42 32 24 23 21 20 20 23 23 22 18 17 16 16 16
72 76 78 81 84 90 91 93 92 84 92 90 82 90 83 74 72 69 64 60 57 54 48 43 31 24 24 24 25 25 25 25 22 19 18 17 16 16
65 75 79 87 88 98 97 96 94 90 87 94 82 95 87 82 74 72 67 62 58 54 52 43 33 26 24 24 26 27 29 28 25 22 19 18 17 17
63 65 70 73 80 88 97 94 96 95 88 93 92 97 89 81 83 75 67 62 62 60 53 45 33 28 27 26 25 27 30 28 23 22 22 21 20 21
66 72 73 78 78 86 82 88 97 95 90 94 97 95 88 82 82 74 68 64 63 61 52 42 35 30 29 27 26 28 28 26 26 27 25 26 25 26
68 71 78 90 94 79 86 97 97 96 91 96 95 94 83 88 81 73 69 65 63 59 50 43 38 35 34 31 30 29 29 31 33 32 32 32 31 32
66 71 76 86 96 84 95 93 94 88 95 96 95 95 90 90 83 71 70 66 62 58 49 46 40 40 38 37 36 36 36 39 41 39 40 41 41 42
71 83 87 91 97 88 86 88 88 92 95 97 97 94 95 89 83 72 72 68 63 59 53 50 43 43 41 41 41 41 43 47 48 44 46 47 51 53
80 91 97 97 97 96 94 95 92 91 97 97 97 96 94 95 79 75 75 67 62 60 57 52 47 45 42 42 43 45 51 54 54 56 55 56 58 59
90 97 98 97 97 97 98 94 93 94 96 96 96 96 96 92 78 80 74 66 64 61 60 54 51 49 48 46 46 51 56 59 64 63 63 64 64 61
97 98 97 97 97 94 94 94 95 94 96 95 97 97 98 86 81 80 73 67 66 62 58 56 58 56 54 50 51 56 62 68 68 69 67 68 69 64
93 96 97 97 97 97 97 98 98 98 98 98 98 98 94 83 81 79 73 70 69 65 63 65 64 62 60 58 62 69 73 73 73 72 71 72 68 62